Regional Weather Roundup
Issued by NWS Huntsville, AL

Home | Current Version | Previous Version | Text Only | Print | Product List | Glossary On
Versions: 1 2 3 4 5 6 7 8 9 10 11 12 13 14 15 16 17 18 19 20 21 22 23 24 25 26 27 28 29 30 31 32 33 34 35 36 37 38 39 40 41 42 43 44 45 46 47 48 49 50
000
ASUS44 KHUN 271710
RWRHUN

WEATHER ROUNDUP FOR THE TENNESSEE VALLEY
NATIONAL WEATHER SERVICE HUNTSVILLE AL
1200 PM CDT SAT AUG 27 2016

ALZ001>004-271800-
NORTHWEST ALABAMA

CITY           SKY/WX    TMP DP  RH WIND       PRES   REMARKS
COURTLAND HCN    N/A     84 N/A N/A E3          N/A
RUSSELLVILLE     N/A     86 N/A N/A MISG        N/A
SHOALS AIRPORT SUNNY     88  74  63 E6        30.10F HX  96
SHOALS TVA RES   N/A     86 N/A N/A MISG        N/A
$$

ALZ005>007-016-271800-
NORTH CENTRAL ALABAMA

CITY           SKY/WX    TMP DP  RH WIND       PRES   REMARKS
CULLMAN AG STN   N/A     88 N/A N/A CALM        N/A
DECATUR AP     SUNNY     89  76  65 E5        30.10F HX 100
HUNTSVILLE AP  MOSUNNY   88  74  63 S3        30.10F HX  96
MERIDIANVILLE  MOSUNNY   86  64  48 CALM      30.11F
REDSTONE ARSN  SUNNY     87  75  67 NE5       30.09F HX  97
VINEMONT AP    FAIR      90  73  57 CALM      30.13F HX  97
$$

ALZ008>010-271800-
NORTHEAST ALABAMA

CITY           SKY/WX    TMP DP  RH WIND       PRES   REMARKS
ALBERTVILLE    MOSUNNY   90  77  66 E6        30.11F HX 102
FORT PAYNE     PTSUNNY   86  70  58 CALM      30.11F HX  90
SCOTTSBORO AP  SUNNY     88  75  66 NE6       30.11F HX  97
SCOTTSBORO HCN   N/A     84 N/A N/A MISG        N/A
VALLEY HEAD      N/A     86 N/A N/A MISG        N/A
$$

TNZ076-096-097-271800-
SOUTHEASTERN MIDDLE TENNESSEE

CITY           SKY/WX    TMP DP  RH WIND       PRES   REMARKS
TULLAHOMA      PTSUNNY   90  70  51 CALM      30.14F HX  95
$$

...SURROUNDING SITES...

CITY           SKY/WX    TMP DP  RH WIND       PRES   REMARKS
ATLANTA        PTSUNNY   88  71  57 E10       30.12F HX  94
ANNISTON       MOSUNNY   90  66  45 E10       30.09F HX  92
BIRMINGHAM     MOSUNNY   90  70  51 VRB6      30.10F HX  95
CHATTANOOGA    MOSUNNY   89  71  55 CALM      30.12F HX  95
DALTON         MOSUNNY   88  70  55 CALM      30.12F HX  92
GADSDEN        SUNNY     89  75  63 E5        30.10F HX  99
GOLDEN TRNGL   PTSUNNY   93  73  52 S5        30.05F HX 102
HALEYVILLE     FAIR      88  76  67 VRB3      30.12F HX  99
JACKSON TN     PTSUNNY   85  76  74 N7        30.10F HX  94
MEMPHIS        MOSUNNY   88  74  63 NW5       30.09F HX  96
NASHVILLE      MOSUNNY   92  74  55 SW3       30.11F HX 101
OXFORD MS      PTSUNNY   88  66  48 N3        30.09F HX  90
ROME           SUNNY     87  72  60 CALM      30.11F HX  93
SAVANNAH       SUNNY     88  77  70 CALM      30.08F HX 100
TUPELO         SUNNY     89  72  56 CALM      30.07F HX  96
TUSCALOOSA     MOSUNNY   91  70  49 MISG      30.05F HX  96
$$

...GULF COAST WEATHER...

CITY           SKY/WX    TMP DP  RH WIND       PRES   REMARKS
GULFPORT       SUNNY     91  73  55 NE8       29.99R HX  99
PASCAGOULA     MOSUNNY   90  75  61 NE7       30.00R HX 100
MOBILE         MOSUNNY   87  70  56 E13       30.02R HX  92
GULF SHORES    CLOUDY    85  78  78 E6        30.00S HX  96
PENSACOLA      PTSUNNY   87  77  72 E10       30.00R HX  99
DESTIN         CLOUDY    90  75  61 NE8       30.00S HX 100
PANAMA CITY    MOSUNNY   88  73  61 E7        30.01F HX  95
APPALACHICOLA  MOSUNNY   88  76  67 E9G17     30.02R HX  99
$$




USA.gov is the U.S. government's official web portal to all federal, state and local government web resources and services.